PROBA 1

Satellite information

Favourite Embed

Satellite Type and Status

PAYLOADIN ORBIT

Key statistics

Satellite PROBA 1 at a glance.

Uptime

8819

Days in orbit

Revolutions

≈ 15.1

Per day

Orbit

SSO

Sun Synchronous Orbit

Inclination

98.0

Latest

Satellite identification and parameters

Extended collection of information and parameters for PROBA 1.

Object identification

Identified? True

Debris? False

Object name: PROBA 1

International designator: 2001-049B

Object number (NORAD): 26958

Object ID (CCSDS): 26958

Country: EUROPEAN SPACE AGENCY (ESA)

Current information (Y/N): Y

RCS size: MEDIUM

Orbital parameters

Period: 95.589 minutes

Inclination: 97.9591 deg

SMA: 6925.208 km

Apoapsis: 586.658 km

Periapsis: 507.488 km

RAAN: 343.3095 deg

Eccentricy: 0.00571606

Argument of periapsis: 36.2215 deg

Mean anomaly: 324.286 deg

Mean motion: 15.06445867 rev/day

Mean motion (dot): 0.00005164 rev/day2

B* drag term: 0.00034194304 1/REarth

Two-line elements (TLE)

Creation date: Dec. 12, 2025, 10:14 a.m.

Reference frame: TEME

Reference center: EARTH

Epoch: Dec. 12, 2025, 3:55 a.m. UTC

TLE line 0: 0 PROBA 1

TLE line 1: 1 26958U 01049B 25346.16341517 .00005164 00000-0 34194-3 0 9992

TLE line 2: 2 26958 97.9591 343.3095 0057161 36.2215 324.2860 15.06445867315457

Live tracking on map

Real-time ground track for satellite PROBA 1.

In-orbit conjunctions

There are no conjunctions computed for PROBA 1, at the moment. Check back to stay up to date, as we update our databases every day.

Go to all conjunctions

Associated space launch

Technology Experiment Satellite (TES) is Indian remote sensing and photo-reconnaissance satellite. The 1108 kg satellite carries a one-meter resolution panchromatic camera is an experimental satellite to demonstrate and validate, in orbit, technologies that could be used in the future satellites of Indian Space Research Organisation (ISRO). It was successfully placed in 572 km Sun-synchronous orbit on 22 October 2001 using the PSLV-C3. The PSLV-C3 also injected two more satellites: PROBA, a Belgian satellite and BIRD, a German satellite.

PROBA 1 was lifted into orbit during the mission ‘PSLV | TES’, on board a PSLV space rocket.

The launch took place on Oct. 22, 2001, 4:53 a.m. from Satish Dhawan Space Centre First Launch Pad.

For more information about the launch, click the button.

Launch to space PSLV | TES
PSLV | TES

Agency: N/A

Status: Launch Successful

Launch date: Oct. 22, 2001, 4:53 a.m. UTC

Rocket: PSLV

Launch pad: Satish Dhawan Space Centre First Launch Pad

Location: Satish Dhawan Space Centre, India

...

Latest news about this satellite

News about space launch
Proba-1’s T-plus 23 years in orbit

Proba-1’s T-plus 23 years in orbit


Newsletter sign-up

Weekly statistics, charts and insights to help you stay on top of the space industry.